User: anonymous   Login
Location: Unspecified
(0.0000°N, 0.0000°E)
Time: 18:58:21
(UTC+00:00)
Language:

OBJECT D - Orbit

View from above orbital plane
View from above orbital plane
View from above satellite
View from above satellite

Ground track
Ground track

The orbit data is extracted from the following two-line orbital elements,

1 43693U 18088D   18351.05605802  .00002022  00000-0  90086-4 0  9997
2 43693  85.0370  79.3073 0020369 142.8833 217.3821 15.20575371  5452
Epoch (UTC): 17 December 2018 01:20:43
Eccentricity: 0.0020369
inclination: 85.0370°
perigee height: 490 km
apogee height: 518 km
right ascension of ascending node: 79.3073°
argument of perigee: 142.8833°
revolutions per day: 15.20575371
mean anomaly at epoch: 217.3821°
orbit number at epoch: 545

The dashed part of the orbit path shows where the satellite is in the earth's shadow,  

DLR